Date String (YYYY-MM-DD hh:mm:ss) UTC,Instrument flags,Ambient pressure (hPa),Sample flow (lpm),Bypass flow (lpm),Sample temperature (°C),Ambient temperature (°C),ASC tube jacket temperature (°C),LED temperature (°C),Box temperature (°C),Sample RH (%),Span deviation,Mass concentration (μg/m³),Mass concentration (μg/m³),Mass concentration (μg/m³)
DateTimeUTC,F1_M11,P_M11,Q1_M11,Q2_M11,T1_M11,T2_M11,T3_M11,T4_M11,T5_M11,U1_M11,ZSPAN_M11,X0_M11,X2_M11,X1_M11
2023-04-07 18:00:00,,0832.6,5.00,0.00,23.2,21.9,00.0,31.5,24.8,09.5,0000.0,0012.16,0005.06,0004.20
2023-04-07 18:01:00,,0832.6,5.01,0.00,23.2,21.9,00.0,31.5,24.9,09.7,0000.0,0012.69,0005.08,0004.21
2023-04-07 18:02:00,,0832.6,5.00,0.00,23.2,22.0,00.0,31.5,24.9,10.2,0000.0,0013.65,0005.08,0004.23
2023-04-07 18:03:00,,0832.5,4.99,0.00,23.3,22.0,00.0,31.5,24.9,10.1,0000.0,0015.06,0005.10,0004.25
2023-04-07 18:04:00,,0832.5,5.00,0.00,23.3,22.0,00.0,31.5,24.9,10.0,0000.0,0015.07,0005.15,0004.27
2023-04-07 18:05:00,,0832.5,5.01,0.00,23.3,22.0,00.0,31.5,24.9,09.7,0000.0,0015.01,0005.13,0004.26
2023-04-07 18:06:00,,0832.5,4.99,0.00,23.3,22.0,00.0,31.5,24.9,09.8,0000.0,0015.08,0005.16,0004.27
2023-04-07 18:07:00,,0832.5,4.99,0.00,23.3,22.0,00.0,31.5,24.9,09.6,0000.0,0014.48,0005.19,0004.28
2023-04-07 18:08:00,,0832.5,5.01,0.00,23.3,22.0,00.0,31.5,24.9,09.7,0000.0,0013.34,0005.21,0004.30
2023-04-07 18:09:00,,0832.5,5.01,0.00,23.3,22.0,00.0,31.5,24.9,09.7,0000.0,0012.91,0005.18,0004.33
2023-04-07 18:10:00,,0832.5,5.00,0.00,23.3,22.0,00.0,31.6,24.9,09.6,0000.0,0013.42,0005.18,0004.35
2023-04-07 18:11:00,,0832.5,4.98,0.00,23.3,22.0,00.0,31.6,24.9,09.6,0000.0,0013.95,0005.22,0004.40
2023-04-07 18:12:00,,0832.5,4.99,0.00,23.3,22.0,00.0,31.6,24.9,09.7,0000.0,0014.16,0005.26,0004.43
2023-04-07 18:13:00,,0832.5,5.01,0.00,23.4,22.1,00.0,31.6,25.0,09.8,0000.0,0013.40,0005.30,0004.46
2023-04-07 18:14:00,,0832.4,5.00,0.00,23.4,22.1,00.0,31.6,25.0,10.1,0000.0,0011.88,0005.31,0004.49
2023-04-07 18:15:00,,0832.4,4.99,0.00,23.4,22.1,00.0,31.6,25.0,10.0,0000.0,0012.20,0005.33,0004.51
2023-04-07 18:16:00,,0832.4,4.99,0.00,23.4,22.2,00.0,31.6,25.0,09.7,0000.0,0012.19,0005.35,0004.54
2023-04-07 18:17:00,,0832.4,5.00,0.00,23.4,22.2,00.0,31.6,25.0,09.4,0000.0,0012.19,0005.38,0004.55
2023-04-07 18:18:00,,0832.4,5.01,0.00,23.4,22.2,00.0,31.6,25.0,09.3,0000.0,0012.83,0005.39,0004.58
2023-04-07 18:19:00,,0832.4,5.00,0.00,23.4,22.2,00.0,31.7,25.0,09.4,0000.0,0013.19,0005.40,0004.60
2023-04-07 18:20:00,,0832.3,4.98,0.00,23.5,22.2,00.0,31.7,25.1,10.0,0000.0,0013.21,0005.45,0004.62
2023-04-07 18:21:00,,0832.3,4.99,0.00,23.5,22.2,00.0,31.7,25.1,09.6,0000.0,0013.26,0005.49,0004.63
2023-04-07 18:22:00,,0832.3,5.01,0.00,23.5,22.2,00.0,31.7,25.1,09.2,0000.0,0013.11,0005.51,0004.63
2023-04-07 18:23:00,,0832.3,5.00,0.00,23.5,22.2,00.0,31.7,25.1,09.4,0000.0,0013.00,0005.51,0004.62
2023-04-07 18:24:00,,0832.3,4.99,0.00,23.5,22.2,00.0,31.7,25.1,09.2,0000.0,0013.12,0005.55,0004.63
2023-04-07 18:25:00,,0832.3,4.99,0.00,23.5,22.3,00.0,31.7,25.1,09.4,0000.0,0013.56,0005.62,0004.65
2023-04-07 18:26:00,,0832.3,5.01,0.00,23.5,22.3,00.0,31.7,25.1,09.5,0000.0,0013.27,0005.70,0004.67
2023-04-07 18:27:00,,0832.3,5.01,0.00,23.5,22.3,00.0,31.8,25.1,09.5,0000.0,0013.91,0005.74,0004.69
2023-04-07 18:28:00,,0832.3,4.99,0.00,23.6,22.3,00.0,31.8,25.1,09.6,0000.0,0014.67,0005.82,0004.73
2023-04-07 18:29:00,,0832.2,5.00,0.00,23.6,22.3,00.0,31.8,25.1,09.6,0000.0,0014.30,0005.86,0004.76
2023-04-07 18:30:00,,0832.2,4.99,0.00,23.6,22.3,00.0,31.8,25.2,10.0,0000.0,0013.84,0005.90,0004.79
2023-04-07 18:31:00,,0832.2,5.00,0.00,23.6,22.3,00.0,31.8,25.2,09.9,0000.0,0013.90,0005.91,0004.81
2023-04-07 18:32:00,,0832.2,5.01,0.00,23.6,22.4,00.0,31.8,25.2,09.6,0000.0,0013.61,0005.91,0004.84
2023-04-07 18:33:00,,0832.2,5.00,0.00,23.6,22.4,00.0,31.8,25.2,09.4,0000.0,0013.29,0005.92,0004.86
2023-04-07 18:34:00,,0832.2,5.00,0.00,23.6,22.4,00.0,31.8,25.2,10.1,0000.0,0014.44,0005.93,0004.87
2023-04-07 18:35:00,,0832.1,4.99,0.00,23.6,22.4,00.0,31.8,25.2,10.0,0000.0,0014.88,0005.89,0004.88
2023-04-07 18:36:00,,0832.1,5.01,0.00,23.6,22.4,00.0,31.8,25.2,09.6,0000.0,0014.81,0005.87,0004.90
2023-04-07 18:37:00,,0832.0,5.02,0.00,23.6,22.4,00.0,31.9,25.2,09.4,0000.0,0015.38,0005.86,0004.92
2023-04-07 18:38:00,,0832.1,5.01,0.00,23.6,22.4,00.0,31.9,25.2,09.3,0000.0,0015.11,0005.86,0004.93
2023-04-07 18:39:00,,0832.0,5.00,0.00,23.7,22.4,00.0,31.9,25.2,09.8,0000.0,0014.62,0005.82,0004.94
2023-04-07 18:40:00,,0832.0,5.00,0.00,23.7,22.4,00.0,31.9,25.2,09.7,0000.0,0014.42,0005.84,0004.96
2023-04-07 18:41:00,,0832.0,4.99,0.00,23.7,22.4,00.0,31.9,25.2,09.2,0000.0,0014.56,0005.87,0004.96
2023-04-07 18:42:00,,0832.0,5.00,0.00,23.7,22.4,00.0,31.9,25.2,09.1,0000.0,0014.75,0005.91,0004.98
2023-04-07 18:43:00,,0832.0,5.02,0.00,23.7,22.4,00.0,31.9,25.2,09.2,0000.0,0015.72,0005.98,0005.01
2023-04-07 18:44:00,,0832.0,4.99,0.00,23.7,22.4,00.0,31.9,25.3,09.4,0000.0,0015.47,0006.00,0005.03
2023-04-07 18:45:00,,0832.0,4.99,0.00,23.7,22.4,00.0,31.9,25.3,09.7,0000.0,0014.18,0006.02,0005.07
2023-04-07 18:46:00,,0832.0,5.00,0.00,23.7,22.5,00.0,31.9,25.3,09.2,0000.0,0014.09,0006.04,0005.11
2023-04-07 18:47:00,,0831.9,5.01,0.00,23.7,22.5,00.0,32.0,25.3,09.1,0000.0,0015.16,0006.08,0005.15
2023-04-07 18:48:00,,0832.0,5.00,0.00,23.8,22.5,00.0,32.0,25.3,09.3,0000.0,0014.86,0006.12,0005.19
2023-04-07 18:49:00,,0832.0,4.99,0.00,23.8,22.5,00.0,32.0,25.3,09.6,0000.0,0015.18,0006.18,0005.21
2023-04-07 18:50:00,,0832.0,5.01,0.00,23.8,22.5,00.0,32.0,25.3,09.8,0000.0,0015.33,0006.22,0005.23
2023-04-07 18:51:00,,0831.9,5.01,0.00,23.8,22.5,00.0,32.0,25.4,09.7,0000.0,0015.60,0006.27,0005.25
2023-04-07 18:52:00,,0831.9,4.99,0.00,23.8,22.6,00.0,32.0,25.5,10.0,0000.0,0015.65,0006.28,0005.28
2023-04-07 18:53:00,,0831.9,5.00,0.00,23.8,22.6,00.0,32.0,25.5,09.9,0000.0,0015.28,0006.30,0005.33
2023-04-07 18:54:00,,0831.8,5.00,0.00,23.8,22.6,00.0,32.1,25.5,09.8,0000.0,0014.64,0006.34,0005.39
2023-04-07 18:55:00,,0831.8,5.00,0.00,23.9,22.6,00.0,32.1,25.5,09.9,0000.0,0014.72,0006.39,0005.42
2023-04-07 18:56:00,,0831.8,5.00,0.00,23.9,22.7,00.0,32.1,25.5,09.6,0000.0,0015.27,0006.45,0005.47
2023-04-07 18:57:00,,0831.9,4.99,0.00,23.9,22.7,00.0,32.1,25.5,09.7,0000.0,0015.67,0006.52,0005.52
2023-04-07 18:58:00,,0832.2,4.99,0.00,23.9,22.7,00.0,32.1,25.5,10.1,0000.0,0014.04,0006.57,0005.56
2023-04-07 18:59:00,,0832.0,5.00,0.00,23.9,22.7,00.0,32.1,25.5,09.6,0000.0,0014.10,0006.63,0005.62
